| time (UTC) | temp C | wind direction | speed KPH | gust KPH | rain 1hr cm | rain 24hr cm | rain mn cm | humidity % | barometer mb |
| 20260902204551 | 32 | 144 | 12.9 | 22.5 | 0.00 | 0.00 | 0.00 | 20 | 1003.1 |
| 20260902203048 | 32 | 186 | 11.3 | 20.9 | 0.00 | 0.00 | 0.00 | 20 | 1003.2 |
| 20260902201554 | 31 | 138 | 6.4 | 16.1 | 0.00 | 0.00 | 0.00 | 20 | 1003.5 |
| 20260902200044 | 31 | 145 | 11.3 | 20.9 | 0.00 | 0.00 | 0.00 | 21 | 1003.6 |
| 20260902194543 | 31 | 167 | 16.1 | 22.5 | 0.00 | 0.00 | 0.00 | 21 | 1003.8 |
| 20260902193045 | 31 | 163 | 11.3 | 20.9 | 0.00 | 0.00 | 0.00 | 21 | 1004.1 |
| 20260902191540 | 31 | 138 | 3.2 | 14.5 | 0.00 | 0.00 | 0.00 | 20 | 1004.3 |
| 20260902190038 | 31 | 198 | 11.3 | 25.7 | 0.00 | 0.00 | 0.00 | 21 | 1004.7 |
| 20260902184535 | 31 | 300 | 8.0 | 14.5 | 0.00 | 0.00 | 0.00 | 20 | 1004.8 |
| 20260902183038 | 31 | 202 | 8.0 | 14.5 | 0.00 | 0.00 | 0.00 | 21 | 1005.0 |
| 20260902181531 | 30 | 211 | 8.0 | 16.1 | 0.00 | 0.00 | 0.00 | 21 | 1005.3 |
| 20260902180029 | 30 | 109 | 6.4 | 12.9 | 0.00 | 0.00 | 0.00 | 21 | 1005.5 |
| 20260902174526 | 30 | 255 | 4.8 | 17.7 | 0.00 | 0.00 | 0.00 | 23 | 1005.9 |
| 20260902173025 | 29 | 256 | 3.2 | 19.3 | 0.00 | 0.00 | 0.00 | 24 | 1006.2 |
| 20260902171523 | 29 | 244 | 12.9 | 27.4 | 0.00 | 0.00 | 0.00 | 23 | 1006.5 |
| 20260902170022 | 29 | 194 | 11.3 | 22.5 | 0.00 | 0.00 | 0.00 | 23 | 1006.8 |
| 20260902164518 | 28 | 307 | 3.2 | 17.7 | 0.00 | 0.00 | 0.00 | 24 | 1006.9 |
| 20260902163016 | 28 | 300 | 11.3 | 24.1 | 0.00 | 0.00 | 0.00 | 24 | 1007.0 |
| 20260902161512 | 28 | 320 | 4.8 | 24.1 | 0.00 | 0.00 | 0.00 | 25 | 1007.3 |
| 20260902160013 | 27 | 293 | 8.0 | 29.0 | 0.00 | 0.00 | 0.00 | 25 | 1007.5 |
| 20260902154507 | 27 | 236 | 4.8 | 12.9 | 0.00 | 0.00 | 0.00 | 26 | 1007.6 |
| 20260902153014 | 26 | 223 | 4.8 | 22.5 | 0.00 | 0.00 | 0.00 | 27 | 1007.6 |
| 20260902151601 | 26 | 331 | 3.2 | 17.7 | 0.00 | 0.00 | 0.00 | 28 | 1007.8 |
| 20260902150057 | 25 | 285 | 3.2 | 12.9 | 0.00 | 0.00 | 0.00 | 30 | 1007.9 |
| 20260902144553 | 24 | 240 | 0.0 | 4.8 | 0.00 | 0.00 | 0.00 | 35 | 1008.1 |
| 20260902143048 | 23 | 246 | 4.8 | 11.3 | 0.00 | 0.00 | 0.00 | 36 | 1008.2 |
| 20260902141544 | 21 | 235 | 1.6 | 8.0 | 0.00 | 0.00 | 0.00 | 43 | 1008.0 |
| 20260902140041 | 20 | 232 | 0.0 | 4.8 | 0.00 | 0.00 | 0.00 | 47 | 1008.2 |
| 20260902134549 | 19 | 196 | 1.6 | 6.4 | 0.00 | 0.00 | 0.00 | 47 | 1008.1 |
| 20260902133039 | 18 | 319 | 0.0 | 3.2 | 0.00 | 0.00 | 0.00 | 49 | 1008.0 |
| 20260902131543 | 17 | 319 | 0.0 | 4.8 | 0.00 | 0.00 | 0.00 | 52 | 1007.9 |
| 20260902130040 | 16 | 272 | 0.0 | 1.6 | 0.00 | 0.00 | 0.00 | 53 | 1007.7 |
| 20260902124533 | 16 | 271 | 0.0 | 3.2 | 0.00 | 0.00 | 0.00 | 53 | 1007.5 |
| 20260902123034 | 16 | 271 | 0.0 | 3.2 | 0.00 | 0.00 | 0.00 | 53 | 1007.3 |
| 20260902121530 | 17 | 277 | 0.0 | 3.2 | 0.00 | 0.00 | 0.00 | 53 | 1007.2 |
| 20260902120028 | 17 | 230 | 0.0 | 4.8 | 0.00 | 0.00 | 0.00 | 52 | 1007.1 |
| 20260902114529 | 17 | 327 | 0.0 | 6.4 | 0.00 | 0.00 | 0.00 | 53 | 1006.9 |
| 20260902113025 | 17 | 277 | 0.0 | 3.2 | 0.00 | 0.00 | 0.00 | 53 | 1006.8 |
| 20260902111523 | 17 | 305 | 1.6 | 12.9 | 0.00 | 0.00 | 0.00 | 53 | 1006.6 |
| 20260902110036 | 16 | 302 | 0.0 | 4.8 | 0.00 | 0.00 | 0.00 | 59 | 1006.5 |
| 20260902104521 | 16 | 283 | 0.0 | 3.2 | 0.00 | 0.00 | 0.00 | 62 | 1006.5 |
| 20260902103020 | 16 | 287 | 0.0 | 3.2 | 0.00 | 0.00 | 0.00 | 63 | 1006.5 |
| 20260902101520 | 16 | 235 | 0.0 | 0.0 | 0.00 | 0.00 | 0.00 | 63 | 1006.5 |
| 20260902100018 | 16 | 235 | 0.0 | 3.2 | 0.00 | 0.00 | 0.00 | 64 | 1006.4 |
| 20260902094522 | 16 | 233 | 0.0 | 4.8 | 0.00 | 0.00 | 0.00 | 67 | 1006.5 |
| 20260902093028 | 16 | 194 | 0.0 | 1.6 | 0.00 | 0.00 | 0.00 | 73 | 1006.3 |
| 20260902091514 | 16 | 194 | 0.0 | 0.0 | 0.00 | 0.00 | 0.00 | 72 | 1006.4 |
| 20260902090011 | 16 | 194 | 0.0 | 4.8 | 0.00 | 0.00 | 0.00 | 71 | 1006.5 |
| 20260902084518 | 16 | 194 | 0.0 | 0.0 | 0.00 | 0.00 | 0.00 | 72 | 1006.4 |
| 20260902083008 | 17 | 194 | 0.0 | 0.0 | 0.00 | 0.00 | 0.00 | 72 | 1006.4 |
| 20260902081506 | 17 | 194 | 0.0 | 0.0 | 0.00 | 0.00 | 0.00 | 70 | 1006.4 |
| 20260902080004 | 17 | 194 | 0.0 | 3.2 | 0.00 | 0.00 | 0.00 | 69 | 1006.7 |
| 20260902074503 | 18 | 346 | 0.0 | 0.0 | 0.00 | 0.00 | 0.00 | 69 | 1006.6 |
| 20260902073103 | 18 | 346 | 0.0 | 0.0 | 0.00 | 0.00 | 0.00 | 67 | 1006.6 |
| 20260902071557 | 19 | 346 | 0.0 | 3.2 | 0.00 | 0.00 | 0.00 | 65 | 1006.6 |
| 20260902070054 | 20 | 346 | 0.0 | 6.4 | 0.00 | 0.00 | 0.00 | 63 | 1006.4 |
| 20260902064554 | 20 | 347 | 6.4 | 14.5 | 0.00 | 0.00 | 0.00 | 63 | 1006.2 |
| 20260902063050 | 20 | 1 | 6.4 | 12.9 | 0.00 | 0.00 | 0.00 | 61 | 1006.2 |
| 20260902061559 | 20 | 356 | 4.8 | 8.0 | 0.00 | 0.00 | 0.00 | 60 | 1006.1 |
| 20260902060055 | 20 | 24 | 8.0 | 9.7 | 0.00 | 0.00 | 0.00 | 59 | 1006.2 |
| 20260902054605 | 21 | 33 | 3.2 | 11.3 | 0.00 | 0.00 | 0.00 | 59 | 1006.5 |
| 20260902053059 | 21 | 28 | 8.0 | 14.5 | 0.00 | 0.00 | 0.00 | 58 | 1006.2 |
| 20260902051543 | 21 | 351 | 1.6 | 4.8 | 0.00 | 0.00 | 0.00 | 55 | 1006.0 |
| 20260902050045 | 22 | 141 | 0.0 | 3.2 | 0.00 | 0.00 | 0.00 | 53 | 1006.0 |
| 20260902044543 | 22 | 139 | 3.2 | 8.0 | 0.00 | 0.00 | 0.00 | 52 | 1005.9 |
| 20260902043045 | 23 | 175 | 1.6 | 6.4 | 0.00 | 0.00 | 0.00 | 51 | 1005.9 |
| 20260902041546 | 23 | 132 | 3.2 | 6.4 | 0.00 | 0.00 | 0.00 | 49 | 1006.1 |
| 20260902040048 | 24 | 135 | 6.4 | 12.9 | 0.00 | 0.00 | 0.00 | 48 | 1006.3 |
| 20260902034541 | 23 | 119 | 11.3 | 19.3 | 0.00 | 0.00 | 0.00 | 49 | 1005.9 |
| 20260902033040 | 23 | 67 | 6.4 | 19.3 | 0.00 | 0.00 | 0.00 | 50 | 1006.0 |
| 20260902031544 | 24 | 126 | 4.8 | 12.9 | 0.00 | 0.00 | 0.00 | 46 | 1006.4 |
| 20260902030039 | 25 | 140 | 0.0 | 8.0 | 0.00 | 0.00 | 0.00 | 45 | 1006.4 |
| 20260902024541 | 25 | 70 | 6.4 | 17.7 | 0.00 | 0.00 | 0.00 | 46 | 1005.8 |
| 20260902023044 | 25 | 80 | 9.7 | 20.9 | 0.00 | 0.00 | 0.00 | 46 | 1005.5 |
| 20260902021538 | 25 | 59 | 11.3 | 19.3 | 0.00 | 0.00 | 0.00 | 48 | 1005.1 |
| 20260902020039 | 25 | 117 | 8.0 | 22.5 | 0.00 | 0.00 | 0.00 | 48 | 1004.8 |
| 20260902014538 | 25 | 133 | 9.7 | 29.0 | 0.00 | 0.00 | 0.00 | 46 | 1004.8 |
| 20260902013043 | 26 | 97 | 12.9 | 29.0 | 0.00 | 0.00 | 0.00 | 42 | 1004.8 |
| 20260902011537 | 26 | 84 | 6.4 | 17.7 | 0.00 | 0.00 | 0.00 | 38 | 1004.8 |
| 20260902010036 | 26 | 83 | 8.0 | 17.7 | 0.00 | 0.00 | 0.00 | 37 | 1004.6 |
| 20260902004536 | 27 | 128 | 9.7 | 16.1 | 0.00 | 0.00 | 0.00 | 38 | 1004.6 |
| 20260902003039 | 27 | 114 | 8.0 | 19.3 | 0.00 | 0.00 | 0.00 | 38 | 1004.7 |
| 20260902001552 | 27 | 142 | 12.9 | 25.7 | 0.00 | 0.00 | 0.00 | 38 | 1004.7 |
| 20260902000038 | 27 | 122 | 17.7 | 27.4 | 0.00 | 0.00 | 0.00 | 37 | 1004.6 |
| 20260901234534 | 28 | 111 | 14.5 | 30.6 | 0.00 | 0.00 | 0.00 | 36 | 1004.6 |
| 20260901233035 | 30 | 106 | 16.1 | 29.0 | 0.00 | 0.00 | 0.00 | 29 | 1004.5 |
| 20260901231531 | 30 | 107 | 16.1 | 38.6 | 0.00 | 0.00 | 0.00 | 30 | 1004.4 |
| 20260901230031 | 30 | 82 | 22.5 | 29.0 | 0.00 | 0.00 | 0.00 | 31 | 1004.7 |
| 20260901224529 | 30 | 129 | 6.4 | 17.7 | 0.00 | 0.00 | 0.00 | 30 | 1004.9 |
| 20260901223027 | 30 | 107 | 9.7 | 19.3 | 0.00 | 0.00 | 0.00 | 30 | 1005.0 |
| 20260901221525 | 30 | 102 | 9.7 | 22.5 | 0.00 | 0.00 | 0.00 | 29 | 1005.2 |
| 20260901220023 | 30 | 126 | 14.5 | 22.5 | 0.00 | 0.00 | 0.00 | 30 | 1005.6 |
| 20260901214523 | 30 | 151 | 6.4 | 19.3 | 0.00 | 0.00 | 0.00 | 29 | 1005.5 |
| 20260901213020 | 29 | 198 | 9.7 | 25.7 | 0.00 | 0.00 | 0.00 | 29 | 1005.7 |
| 20260901211519 | 30 | 145 | 8.0 | 17.7 | 0.00 | 0.00 | 0.00 | 29 | 1005.8 |
| 20260901210017 | 29 | 141 | 11.3 | 19.3 | 0.00 | 0.00 | 0.00 | 29 | 1005.9 |